THORAD DELTA 1 DEB, 8435

Orbit data source: Space-Track

THORAD DELTA 1 DEB, 8435 is space debris in SSO originally from a launch on Fri, 15 Nov 1974 UTC launched from the Air Force Western Test Range (AFWTR). Debris objects in space refer to the collection of defunct objects orbiting the Earth. Examples of debris include non-operational satellites, rocket bodies, and fragments generated from explosions, collisions, or faulty payload assembly.

Loading next visibility...
Identifier
8435, 1974-089CL
Orbit
SSO
Country
Flag of USUS
Related business
Manufacturer
Unknown
Mission
Spacecraft
Bus & Motor
Unknown
Mass
Unknown
Launch date (UTC)
1974-11-15 (51 years ago)
Launch vehicle
Unknown
Launch site
Air Force Western Test Range (AFWTR)
Object type
Payload
Rocket body
Debris
Shape & HBR
Unknown shape, 0.1 m
Radar Cross Section
Small (<0.1 m²)

Expand to show TLE details & history
Last TLE update: 1 day ago

TLE from 1 day ago
0 THORAD DELTA 1 DEB
1 08435U 74089CL  26070.62081192 -.00000009  00000-0  28900-3 0  9994
2 08435 101.5811 303.5107 0165474 352.2062  32.1347 12.20826704287330
Epoch: 2026-03-11T14:53Z
TLE epoch observation values (Epoch: 2026-03-11T14:53:58.149Z)
Latitude
24.8436°
Longitude
-94.68151°
Altitude
1,480.599 km
Speed
7.175 km/s
True Right ascension
19h 52m 22s
True Declination
24° 43' 29"
Sunlit
Object was in daylight at epoch
Visualization orbit readout
Latitude
Unknown
Longitude
Unknown
Altitude
Unknown
Speed
Unknown
Apparent Right ascension
Unknown
Apparent Declination
Unknown
Sunlit
N/A
Visualization observer readout
Local Sidereal Time
18:56:50
Azimuth
Unknown
Elevation
Unknown
Doppler factor
Unknown
Orbital elements
Apogee altitude
1,718.312 km
Perigee altitude
1,454.723 km
Semi-major axis
7,964.654 km
Eccentricity
0.01655
Inclination
101.5811°
RAAN
303.5107°
Arg. of periapsis
352.2062°
True anomaly
33.16122°
Mean anomaly
32.1347°
Eccentric anomaly
32.64615°
Mean motion
3.05346 °/min
Orbital period
117.9 mins
BSTAR
0.000289
Loading maneuver chart data...
Computing Atmospheric mass density...

Documentation

Showing up to 5 results
|